Location: Bratislava
(48.1500°N, 17.1167°E)
Time: 06:27:58
(UTC+02:00)

ISS - Visible Passes

Search period start: 27 June 2019 00:00
Search period end: 07 July 2019 00:00
Orbit: 407 x 418 km, 51.6° (Epoch: 27 June)

Date Brightness Start Highest point End Pass type
(mag) Time Alt. Az. Time Alt. Az. Time Alt. Az.
02 Jul -1.4 03:25:26 10° SSE 03:26:59 13° SE 03:28:32 10° ESE visible
03 Jul -3.1 04:10:28 10° SW 04:13:36 42° SSE 04:16:46 10° ENE visible
04 Jul -2.5 03:22:24 18° S 03:24:08 27° SE 03:27:00 10° E visible
05 Jul -1.9 02:34:32 18° SE 02:34:42 18° SE 02:37:00 10° E visible
05 Jul -3.8 04:07:39 10° WSW 04:10:58 85° SSE 04:14:17 10° ENE visible
06 Jul -3.6 03:19:25 21° SW 03:21:23 57° SSE 03:24:39 10° ENE visible
